EA5AFP-10 Weather Reports


time (UTC)temp
C
wind
direction
speed
KPH
gust
KPH
rain 1hr
cm
rain 24hr
cm
rain mn
cm
humidity
%
barometer
mb
20260510162359 23 90 1.6 3.2 0.00 0.00 0.00 6 1005.4
20260510161940 23 112 3.2 6.4 0.00 0.00 0.00 6 1005.5
20260510161652 23 112 4.8 9.7 0.00 0.00 0.00 6 1005.3
20260510161521 23 112 4.8 9.7 0.00 0.00 0.00 6 1005.4
20260510161038 23 90 9.7 14.5 0.00 0.00 0.00 6 1005.3
20260510160653 23 67 9.7 14.5 0.00 0.00 0.00 6 1005.4
20260510160620 23 67 9.7 14.5 0.00 0.00 0.00 6 1005.4
20260510160155 23 135 6.4 9.7 0.00 0.00 0.00 6 1005.5
20260510155702 23 67 16.1 24.1 0.00 0.00 0.00 6 1005.4
20260510155700 23 67 16.1 24.1 0.00 0.00 0.00 6 1005.4
20260510155507 23 112 14.5 17.7 0.00 0.00 0.00 6 1005.5
20260510155359 23 90 11.3 14.5 0.00 0.00 0.00 6 1005.6
20260510154957 23 112 14.5 20.9 0.00 0.00 0.00 6 1005.4
20260510154552 23 67 8.0 14.5 0.00 0.00 0.00 6 1005.3
20260510154113 24 90 9.7 12.9 0.00 0.00 0.00 6 1005.3
20260510153657 23 45 4.8 9.7 0.00 0.00 0.00 6 1005.5
20260510153625 23 45 4.8 9.7 0.00 0.00 0.00 6 1005.5
20260510153157 23 90 3.2 6.4 0.00 0.00 0.00 6 1005.5
20260510152706 23 112 6.4 9.7 0.00 0.00 0.00 6 1005.5
20260510152230 23 112 9.7 12.9 0.00 0.00 0.00 6 1005.6
20260510152210 23 135 8.0 9.7 0.00 0.00 0.00 6 1005.4
20260510151811 23 112 3.2 9.7 0.00 0.00 0.00 5 1005.6
20260510151327 23 135 8.0 9.7 0.00 0.00 0.00 6 1005.6
20260510150925 23 90 6.4 9.7 0.00 0.00 0.00 6 1005.8
20260510150436 23 135 4.8 9.7 0.00 0.00 0.00 6 1005.8
20260510150010 22 90 11.3 14.5 0.00 0.00 0.00 6 1005.8
20260510145546 22 67 8.0 12.9 0.00 0.00 0.00 6 1006.0
20260510145051 22 112 11.3 14.5 0.00 0.00 0.00 6 1006.0
20260510144601 22 112 8.0 9.7 0.00 0.00 0.00 6 1005.9
20260510144129 22 90 9.7 12.9 0.00 0.00 0.00 6 1006.3
20260510143711 21 112 8.0 12.9 0.00 0.00 0.00 7 1006.3
20260510143246 22 135 12.9 19.3 0.00 0.00 0.00 7 1006.5
20260510142752 22 90 9.7 16.1 0.00 0.00 0.00 7 1006.5
20260510142418 21 112 14.5 19.3 0.00 0.00 0.00 7 1006.7
20260510142349 21 112 12.9 17.7 0.00 0.00 0.00 7 1006.5
20260510141956 22 112 9.7 14.5 0.00 0.00 0.00 7 1006.5
20260510141506 21 112 14.5 20.9 0.00 0.00 0.00 7 1006.5
20260510141036 21 67 12.9 19.3 0.00 0.00 0.00 7 1006.7
20260510140655 21 90 17.7 20.9 0.00 0.00 0.00 6 1006.8
20260510140618 21 90 17.7 20.9 0.00 0.00 0.00 6 1006.8
20260510140153 21 90 17.7 20.9 0.00 0.00 0.00 6 1006.8
20260510135702 22 90 16.1 20.9 0.00 0.00 0.00 5 1007.0
20260510135658 22 90 16.1 20.9 0.00 0.00 0.00 5 1007.0
20260510135405 22 135 19.3 27.4 0.00 0.00 0.00 5 1007.2
20260510134945 22 112 17.7 27.4 0.00 0.00 0.00 5 1007.2
20260510134525 22 90 19.3 27.4 0.00 0.00 0.00 5 1007.0
20260510134041 22 90 14.5 20.9 0.00 0.00 0.00 5 1007.2
20260510133658 22 112 14.5 20.9 0.00 0.00 0.00 6 1007.4
20260510133625 22 112 14.5 20.9 0.00 0.00 0.00 6 1007.4
20260510133200 22 90 17.7 29.0 0.00 0.00 0.00 5 1007.4
20260510132709 22 112 11.3 19.3 0.00 0.00 0.00 6 1007.5
20260510132705 22 112 11.3 19.3 0.00 0.00 0.00 6 1007.5
20260510132421 22 135 14.5 20.9 0.00 0.00 0.00 6 1007.6
20260510131958 22 90 16.1 24.1 0.00 0.00 0.00 6 1007.7
20260510131654 21 90 16.1 24.1 0.00 0.00 0.00 6 1007.7
20260510131510 21 135 17.7 20.9 0.00 0.00 0.00 6 1007.7
20260510131040 22 90 20.9 29.0 0.00 0.00 0.00 6 1007.6
20260510130654 21 67 19.3 27.4 0.00 0.00 0.00 6 1007.8
20260510130621 21 67 19.3 27.4 0.00 0.00 0.00 6 1007.8
20260510130156 22 45 16.1 24.1 0.00 0.00 0.00 6 1008.0
20260510125704 22 67 14.5 20.9 0.00 0.00 0.00 6 1008.1
20260510125701 22 67 14.5 20.9 0.00 0.00 0.00 6 1008.1
20260510125504 22 67 16.1 20.9 0.00 0.00 0.00 6 1008.0
20260510125008 21 112 14.5 19.3 0.00 0.00 0.00 6 1008.1
20260510124520 21 112 9.7 12.9 0.00 0.00 0.00 6 1008.3
20260510124102 21 135 11.3 16.1 0.00 0.00 0.00 6 1008.2
20260510123602 21 90 12.9 17.7 0.00 0.00 0.00 6 1008.3
20260510123528 21 90 12.9 17.7 0.00 0.00 0.00 6 1008.3
20260510123112 21 67 12.9 19.3 0.00 0.00 0.00 6 1008.4
20260510122658 21 90 14.5 24.1 0.00 0.00 0.00 6 1008.4
20260510122656 21 90 14.5 24.1 0.00 0.00 0.00 6 1008.4
20260510122513 21 67 14.5 27.4 0.00 0.00 0.00 6 1008.4
20260510122248 21 90 9.7 17.7 0.00 0.00 0.00 6 1008.4
20260510122016 21 90 14.5 19.3 0.00 0.00 0.00 6 1008.4
20260510121526 21 135 9.7 16.1 0.00 0.00 0.00 6 1008.5
20260510121407 20 112 9.7 14.5 0.00 0.00 0.00 6 1008.6
20260510121107 20 112 12.9 20.9 0.00 0.00 0.00 6 1008.6
20260510120608 20 112 17.7 24.1 0.00 0.00 0.00 6 1008.7
20260510120118 21 112 19.3 30.6 0.00 0.00 0.00 6 1008.8
20260510115705 21 112 9.7 19.3 0.00 0.00 0.00 6 1008.8
20260510115703 21 112 9.7 19.3 0.00 0.00 0.00 6 1008.8
20260510115359 21 112 19.3 27.4 0.00 0.00 0.00 6 1008.8
20260510115259 21 67 19.3 24.1 0.00 0.00 0.00 6 1008.9
20260510114957 21 90 17.7 27.4 0.00 0.00 0.00 6 1008.9
20260510114532 21 90 19.3 27.4 0.00 0.00 0.00 6 1008.9
20260510114113 21 90 19.3 27.4 0.00 0.00 0.00 6 1009.0
20260510113613 21 90 22.5 30.6 0.00 0.00 0.00 6 1009.1
20260510113537 21 67 20.9 27.4 0.00 0.00 0.00 6 1009.1
20260510113123 21 90 14.5 24.1 0.00 0.00 0.00 6 1009.2
20260510112709 21 90 17.7 24.1 0.00 0.00 0.00 6 1008.9
20260510112245 22 90 14.5 20.9 0.00 0.00 0.00 6 1008.9
20260510111750 22 90 14.5 20.9 0.00 0.00 0.00 6 1009.0
20260510111538 21 90 16.1 24.1 0.00 0.00 0.00 6 1009.1
20260510111347 21 135 14.5 19.3 0.00 0.00 0.00 6 1009.1
20260510110944 21 90 17.7 24.1 0.00 0.00 0.00 6 1009.2
20260510110538 21 112 16.1 24.1 0.00 0.00 0.00 6 1009.2
20260510110119 21 67 12.9 17.7 0.00 0.00 0.00 6 1009.2
20260510105711 21 112 14.5 19.3 0.00 0.00 0.00 6 1009.3
20260510105427 21 67 14.5 19.3 0.00 0.00 0.00 6 1009.3
20260510104950 21 90 19.3 27.4 0.00 0.00 0.00 6 1009.3
20260510104701 21 90 16.1 24.1 0.00 0.00 0.00 6 1009.5
20260510104530 21 112 12.9 20.9 0.00 0.00 0.00 7 1009.3
20260510104054 21 112 19.3 24.1 0.00 0.00 0.00 6 1009.4
20260510103638 21 90 14.5 20.9 0.00 0.00 0.00 7 1009.5
20260510103205 21 90 16.1 24.1 0.00 0.00 0.00 6 1009.5
20260510102709 21 90 17.7 24.1 0.00 0.00 0.00 6 1009.6
20260510102440 21 90 8.0 14.5 0.00 0.00 0.00 6 1009.6
20260510101944 21 90 12.9 16.1 0.00 0.00 0.00 7 1009.7
20260510101656 21 67 14.5 17.7 0.00 0.00 0.00 7 1009.6
20260510101526 21 112 17.7 19.3 0.00 0.00 0.00 6 1009.6
20260510101042 22 90 8.0 14.5 0.00 0.00 0.00 6 1009.7
20260510100657 21 90 9.7 16.1 0.00 0.00 0.00 6 1009.8
20260510100625 21 90 9.7 16.1 0.00 0.00 0.00 6 1009.8
20260510100200 21 135 11.3 14.5 0.00 0.00 0.00 6 1009.6
20260510095709 22 247 6.4 9.7 0.00 0.00 0.00 4 1009.7
20260510095705 22 247 6.4 9.7 0.00 0.00 0.00 4 1009.7
20260510095603 22 247 6.4 9.7 0.00 0.00 0.00 4 1009.7
20260510095448 22 270 4.8 9.7 0.00 0.00 0.00 4 1009.8
20260510094952 22 315 6.4 9.7 0.00 0.00 0.00 5 1009.8
20260510094705 22 292 6.4 9.7 0.00 0.00 0.00 4 1009.7
20260510094533 22 270 9.7 14.5 0.00 0.00 0.00 4 1009.8
20260510094049 22 270 8.0 9.7 0.00 0.00 0.00 5 1010.0
20260510093705 22 315 6.4 9.7 0.00 0.00 0.00 5 1009.9
20260510093633 22 315 6.4 9.7 0.00 0.00 0.00 5 1009.9
20260510093208 21 337 4.8 6.4 0.00 0.00 0.00 5 1009.9
20260510092713 21 270 9.7 14.5 0.00 0.00 0.00 5 1009.9
20260510092338 21 270 6.4 9.7 0.00 0.00 0.00 5 1009.9
20260510092302 21 337 6.4 9.7 0.00 0.00 0.00 5 1010.1
20260510091909 21 315 8.0 9.7 0.00 0.00 0.00 5 1010.1
20260510091459 21 315 8.0 12.9 0.00 0.00 0.00 5 1010.0
20260510091408 21 270 9.7 12.9 0.00 0.00 0.00 5 1010.1
20260510091025 21 315 9.7 12.9 0.00 0.00 0.00 5 1010.2
20260510090539 21 270 9.7 14.5 0.00 0.00 0.00 5 1010.1
20260510090124 21 270 8.0 9.7 0.00 0.00 0.00 5 1010.1
20260510085714 21 315 9.7 12.9 0.00 0.00 0.00 5 1010.1
20260510085357 21 270 4.8 4.8 0.00 0.00 0.00 5 1010.1
20260510084955 21 292 1.6 4.8 0.00 0.00 0.00 5 1010.2
20260510084530 21 247 1.6 3.2 0.00 0.00 0.00 5 1010.2
20260510084409 20 270 3.2 3.2 0.00 0.00 0.00 6 1010.3
20260510084058 21 0 0.0 3.2 0.00 0.00 0.00 6 1010.2
20260510083538 20 247 3.2 4.8 0.00 0.00 0.00 6 1010.5
20260510083121 20 247 0.0 4.8 0.00 0.00 0.00 6 1010.3
20260510082706 20 0 3.2 4.8 0.00 0.00 0.00 6 1010.3
20260510082444 20 315 0.0 3.2 0.00 0.00 0.00 6 1010.4
20260510081948 20 337 1.6 4.8 0.00 0.00 0.00 6 1010.4
20260510081700 20 0 0.0 3.2 0.00 0.00 0.00 6 1010.3
20260510081529 20 135 1.6 3.2 0.00 0.00 0.00 6 1010.4
20260510081045 20 67 0.0 1.6 0.00 0.00 0.00 7 1010.3
20260510080629 20 0 0.0 0.0 0.00 0.00 0.00 7 1010.4
20260510080204 20 90 1.6 3.2 0.00 0.00 0.00 7 1010.5
20260510075711 19 0 0.0 0.0 0.00 0.00 0.00 7 1010.4
20260510075709 19 0 0.0 0.0 0.00 0.00 0.00 7 1010.4
20260510075440 18 0 0.0 0.0 0.00 0.00 0.00 7 1010.6
20260510074944 19 45 0.0 1.6 0.00 0.00 0.00 7 1010.4
20260510074656 18 0 0.0 0.0 0.00 0.00 0.00 7 1010.5
20260510074526 18 0 0.0 0.0 0.00 0.00 0.00 8 1010.6
20260510074042 17 90 0.0 1.6 0.00 0.00 0.00 8 1010.5
20260510073700 17 67 1.6 3.2 0.00 0.00 0.00 8 1010.5
20260510073625 17 67 1.6 3.2 0.00 0.00 0.00 8 1010.5
20260510073200 18 0 0.0 0.0 0.00 0.00 0.00 8 1010.6
20260510072707 17 45 0.0 1.6 0.00 0.00 0.00 8 1010.5
20260510072705 17 45 0.0 1.6 0.00 0.00 0.00 8 1010.5
20260510072441 17 292 0.0 1.6 0.00 0.00 0.00 9 1010.7
20260510072000 16 0 0.0 0.0 0.00 0.00 0.00 9 1010.6
20260510071509 16 270 0.0 1.6 0.00 0.00 0.00 9 1010.5
20260510071039 15 292 1.6 3.2 0.00 0.00 0.00 9 1010.6
20260510070654 15 292 1.6 1.6 0.00 0.00 0.00 9 1010.7
20260510070621 15 292 1.6 1.6 0.00 0.00 0.00 9 1010.7
20260510070156 15 292 0.0 3.2 0.00 0.00 0.00 9 1010.7
20260510065703 15 292 1.6 3.2 0.00 0.00 0.00 9 1010.6
20260510065701 15 292 1.6 3.2 0.00 0.00 0.00 9 1010.6
20260510065510 15 292 0.0 1.6 0.00 0.00 0.00 9 1010.6
20260510065352 15 292 0.0 1.6 0.00 0.00 0.00 9 1010.5
20260510064935 15 292 1.6 3.2 0.00 0.00 0.00 9 1010.6
20260510064534 14 292 0.0 1.6 0.00 0.00 0.00 9 1010.4
20260510064512 14 292 0.0 1.6 0.00 0.00 0.00 9 1010.5
20260510064047 14 292 1.6 3.2 0.00 0.00 0.00 9 1010.3
20260510063704 14 292 3.2 3.2 0.00 0.00 0.00 9 1010.4
20260510063629 14 292 3.2 3.2 0.00 0.00 0.00 9 1010.4
20260510063204 14 270 3.2 4.8 0.00 0.00 0.00 9 1010.2
20260510062709 14 270 3.2 3.2 0.00 0.00 0.00 9 1010.4
20260510062322 13 292 3.2 3.2 0.00 0.00 0.00 9 1010.3
20260510061847 13 270 1.6 3.2 0.00 0.00 0.00 9 1010.2
20260510061441 13 247 1.6 3.2 0.00 0.00 0.00 9 1010.2
20260510061249 13 247 1.6 3.2 0.00 0.00 0.00 9 1010.1
20260510060947 13 292 0.0 1.6 0.00 0.00 0.00 9 1010.3
20260510060456 13 270 3.2 3.2 0.00 0.00 0.00 9 1010.3
20260510060008 13 292 3.2 4.8 0.00 0.00 0.00 9 1010.0
20260510055557 13 292 1.6 3.2 0.00 0.00 0.00 9 1010.1
20260510055555 13 292 1.6 3.2 0.00 0.00 0.00 9 1010.1
20260510055345 13 292 3.2 4.8 0.00 0.00 0.00 9 1010.1
20260510054850 13 292 1.6 3.2 0.00 0.00 0.00 9 1010.0
20260510054449 13 292 3.2 4.8 0.00 0.00 0.00 9 1010.1
20260510054040 12 292 1.6 3.2 0.00 0.00 0.00 9 1010.2
20260510053630 12 0 0.0 0.0 0.00 0.00 0.00 9 1010.1
20260510053214 13 292 0.0 1.6 0.00 0.00 0.00 9 1010.0
20260510052805 13 0 0.0 0.0 0.00 0.00 0.00 9 1010.1
20260510052803 13 0 0.0 0.0 0.00 0.00 0.00 9 1010.1
20260510052458 13 67 0.0 1.6 0.00 0.00 0.00 9 1010.0
20260510052427 13 67 0.0 1.6 0.00 0.00 0.00 9 1010.0
20260510052013 13 292 1.6 3.2 0.00 0.00 0.00 9 1009.8
20260510051531 12 292 1.6 3.2 0.00 0.00 0.00 9 1009.8
20260510051101 13 270 4.8 4.8 0.00 0.00 0.00 9 1009.8
20260510050609 13 270 3.2 4.8 0.00 0.00 0.00 9 1009.7
20260510050537 13 270 4.8 4.8 0.00 0.00 0.00 9 1009.8
20260510050121 13 247 3.2 4.8 0.00 0.00 0.00 9 1009.7
20260510045711 13 247 3.2 4.8 0.00 0.00 0.00 9 1009.7
20260510045709 13 247 3.2 4.8 0.00 0.00 0.00 9 1009.7
20260510045707 13 247 3.2 4.8 0.00 0.00 0.00 9 1009.7
20260510045541 13 247 3.2 4.8 0.00 0.00 0.00 9 1009.7
20260510045406 13 270 4.8 4.8 0.00 0.00 0.00 9 1009.7
20260510044922 13 247 4.8 6.4 0.00 0.00 0.00 9 1009.9
20260510044633 13 270 4.8 6.4 0.00 0.00 0.00 9 1009.8
20260510044455 13 315 1.6 4.8 0.00 0.00 0.00 9 1009.8
20260510044052 13 270 4.8 4.8 0.00 0.00 0.00 9 1009.8
20260510043708 13 270 3.2 4.8 0.00 0.00 0.00 9 1009.8
20260510043632 13 270 3.2 4.8 0.00 0.00 0.00 9 1009.8
20260510043207 13 270 4.8 6.4 0.00 0.00 0.00 9 1009.8
20260510042712 13 292 4.8 6.4 0.00 0.00 0.00 9 1009.7
20260510042425 13 292 3.2 3.2 0.00 0.00 0.00 9 1009.7
20260510042353 13 270 3.2 3.2 0.00 0.00 0.00 9 1009.7
20260510041857 13 270 4.8 6.4 0.00 0.00 0.00 9 1009.9
20260510041611 13 270 1.6 3.2 0.00 0.00 0.00 9 1009.7
20260510041445 13 247 3.2 4.8 0.00 0.00 0.00 9 1009.7
20260510041033 13 270 4.8 4.8 0.00 0.00 0.00 9 1009.8
20260510040703 13 270 4.8 6.4 0.00 0.00 0.00 9 1009.7
20260510040629 13 270 4.8 6.4 0.00 0.00 0.00 9 1009.7
20260510040200 13 247 3.2 4.8 0.00 0.00 0.00 9 1009.7
20260510035711 13 270 3.2 4.8 0.00 0.00 0.00 9 1009.7
20260510035341 13 270 4.8 6.4 0.00 0.00 0.00 9 1009.6
20260510034917 13 270 4.8 4.8 0.00 0.00 0.00 9 1009.5
20260510034444 13 225 3.2 4.8 0.00 0.00 0.00 9 1009.5
20260510034016 12 292 4.8 4.8 0.00 0.00 0.00 9 1009.6
20260510033649 13 292 4.8 4.8 0.00 0.00 0.00 9 1009.7
20260510033604 13 292 0.0 3.2 0.00 0.00 0.00 9 1009.6
20260510033156 13 292 3.2 4.8 0.00 0.00 0.00 9 1009.6
20260510032706 13 292 3.2 3.2 0.00 0.00 0.00 9 1009.4
20260510032704 13 292 3.2 3.2 0.00 0.00 0.00 9 1009.4
20260510032357 13 0 0.0 0.0 0.00 0.00 0.00 9 1009.3
20260510031942 13 225 3.2 3.2 0.00 0.00 0.00 9 1009.4
20260510031659 12 0 0.0 0.0 0.00 0.00 0.00 9 1009.4
20260510031529 12 0 0.0 0.0 0.00 0.00 0.00 9 1009.4
20260510031044 13 0 1.6 3.2 0.00 0.00 0.00 9 1009.5
20260510030700 12 247 0.0 1.6 0.00 0.00 0.00 9 1009.5
20260510030628 12 247 0.0 1.6 0.00 0.00 0.00 9 1009.5
20260510030203 12 0 0.0 1.6 0.00 0.00 0.00 9 1009.3
20260510025708 12 225 1.6 3.2 0.00 0.00 0.00 9 1009.3
20260510025538 12 225 1.6 3.2 0.00 0.00 0.00 9 1009.3
20260510025357 12 292 0.0 1.6 0.00 0.00 0.00 9 1009.3
20260510024924 12 315 3.2 4.8 0.00 0.00 0.00 9 1009.4
20260510024632 12 315 4.8 4.8 0.00 0.00 0.00 9 1009.4
20260510024454 13 270 1.6 3.2 0.00 0.00 0.00 9 1009.4
20260510024051 13 247 0.0 1.6 0.00 0.00 0.00 9 1009.4
20260510023631 13 270 1.6 3.2 0.00 0.00 0.00 9 1009.4
20260510023206 13 292 4.8 4.8 0.00 0.00 0.00 9 1009.4
20260510022711 13 225 1.6 3.2 0.00 0.00 0.00 9 1009.2
20260510022446 13 292 1.6 3.2 0.00 0.00 0.00 9 1009.2
20260510022004 12 292 1.6 3.2 0.00 0.00 0.00 9 1009.3
20260510021529 12 270 3.2 4.8 0.00 0.00 0.00 9 1009.4
20260510021043 12 247 4.8 6.4 0.00 0.00 0.00 9 1009.4
20260510020659 12 270 4.8 4.8 0.00 0.00 0.00 9 1009.4
20260510020626 12 270 4.8 4.8 0.00 0.00 0.00 9 1009.4
20260510020201 12 292 4.8 6.4 0.00 0.00 0.00 9 1009.3
20260510015706 12 292 4.8 4.8 0.00 0.00 0.00 9 1009.4
20260510015458 12 292 3.2 3.2 0.00 0.00 0.00 9 1009.4
20260510015011 13 292 0.0 1.6 0.00 0.00 0.00 9 1009.3
20260510014520 13 292 3.2 4.8 0.00 0.00 0.00 9 1009.4
20260510014051 13 270 4.8 4.8 0.00 0.00 0.00 9 1009.3
20260510013708 13 292 4.8 4.8 0.00 0.00 0.00 9 1009.4
20260510013633 13 292 4.8 4.8 0.00 0.00 0.00 9 1009.4
20260510013208 12 292 3.2 4.8 0.00 0.00 0.00 9 1009.5
20260510012713 12 292 3.2 4.8 0.00 0.00 0.00 9 1009.4
20260510012234 13 292 3.2 3.2 0.00 0.00 0.00 9 1009.5
20260510012140 12 270 3.2 4.8 0.00 0.00 0.00 9 1009.5
20260510011831 12 247 1.6 3.2 0.00 0.00 0.00 9 1009.5
20260510011358 12 292 1.6 3.2 0.00 0.00 0.00 9 1009.7
20260510011245 12 292 0.0 3.2 0.00 0.00 0.00 9 1009.5
20260510010922 12 0 0.0 1.6 0.00 0.00 0.00 9 1009.6
20260510010428 13 270 0.0 1.6 0.00 0.00 0.00 9 1009.7
20260510010003 13 270 3.2 4.8 0.00 0.00 0.00 9 1009.8
20260510005551 13 270 3.2 3.2 0.00 0.00 0.00 9 1009.9
20260510005452 13 270 3.2 3.2 0.00 0.00 0.00 9 1009.9
20260510005411 13 292 0.0 3.2 0.00 0.00 0.00 9 1009.8
20260510005047 13 292 1.6 3.2 0.00 0.00 0.00 9 1009.7
20260510004607 13 292 3.2 3.2 0.00 0.00 0.00 9 1010.0
20260510004533 13 292 3.2 3.2 0.00 0.00 0.00 9 1010.0
20260510004141 13 270 4.8 4.8 0.00 0.00 0.00 9 1010.0
20260510003646 13 225 1.6 3.2 0.00 0.00 0.00 9 1010.0
20260510003219 14 292 1.6 3.2 0.00 0.00 0.00 9 1009.9
20260510002754 13 270 4.8 4.8 0.00 0.00 0.00 9 1010.1
20260510002627 13 270 4.8 4.8 0.00 0.00 0.00 9 1010.1
20260510002401 13 270 3.2 4.8 0.00 0.00 0.00 9 1010.1
20260510001930 13 270 1.6 3.2 0.00 0.00 0.00 9 1010.1
20260510001652 13 270 0.0 1.6 0.00 0.00 0.00 9 1010.2
20260510001505 13 270 1.6 1.6 0.00 0.00 0.00 9 1010.1
20260510001040 13 247 3.2 3.2 0.00 0.00 0.00 9 1010.2
20260510000653 13 315 1.6 1.6 0.00 0.00 0.00 9 1010.2
20260510000621 13 315 1.6 1.6 0.00 0.00 0.00 9 1010.2
20260510000155 13 315 3.2 4.8 0.00 0.00 0.00 9 1010.2
20260509235701 14 292 1.6 3.2 0.00 0.00 0.00 9 1010.0
20260509235441 13 292 1.6 3.2 0.00 0.00 0.00 9 1009.9
20260509234954 14 292 3.2 4.8 0.00 0.00 0.00 9 1010.2
20260509234548 14 0 0.0 0.0 0.00 0.00 0.00 9 1010.2
20260509234510 14 0 0.0 0.0 0.00 0.00 0.00 9 1010.3
20260509234045 14 0 0.0 0.0 0.00 0.00 0.00 9 1010.2
20260509233700 14 225 1.6 3.2 0.00 0.00 0.00 9 1010.3
20260509233627 14 225 1.6 3.2 0.00 0.00 0.00 9 1010.3
20260509233202 14 0 0.0 1.6 0.00 0.00 0.00 9 1010.3
20260509232707 15 270 1.6 3.2 0.00 0.00 0.00 9 1010.3
20260509232254 15 270 3.2 3.2 0.00 0.00 0.00 9 1010.4
20260509232213 15 270 3.2 4.8 0.00 0.00 0.00 9 1010.4
20260509231851 15 270 3.2 4.8 0.00 0.00 0.00 9 1010.4
20260509231417 15 292 3.2 3.2 0.00 0.00 0.00 9 1010.4
20260509231318 15 292 3.2 4.8 0.00 0.00 0.00 9 1010.5
20260509230957 15 292 3.2 3.2 0.00 0.00 0.00 9 1010.5
20260509230451 15 292 3.2 3.2 0.00 0.00 0.00 9 1010.5
20260509230036 15 292 1.6 3.2 0.00 0.00 0.00 9 1010.5
20260509225623 15 315 1.6 3.2 0.00 0.00 0.00 9 1010.5
20260509225447 15 315 1.6 3.2 0.00 0.00 0.00 9 1010.5
20260509225423 15 315 1.6 3.2 0.00 0.00 0.00 9 1010.5
20260509225023 15 292 3.2 4.8 0.00 0.00 0.00 9 1010.5
20260509224523 15 292 6.4 9.7 0.00 0.00 0.00 9 1010.5
20260509224037 15 292 3.2 3.2 0.00 0.00 0.00 9 1010.6
20260509223602 15 270 0.0 1.6 0.00 0.00 0.00 9 1010.6
20260509223130 15 292 1.6 3.2 0.00 0.00 0.00 9 1010.6
20260509222640 15 292 1.6 3.2 0.00 0.00 0.00 9 1010.7
20260509222440 15 315 1.6 3.2 0.00 0.00 0.00 9 1010.8
20260509222301 15 292 1.6 3.2 0.00 0.00 0.00 9 1010.6
20260509222007 15 270 4.8 4.8 0.00 0.00 0.00 9 1010.7
20260509221543 15 270 6.4 9.7 0.00 0.00 0.00 9 1010.9
20260509221304 15 270 4.8 6.4 0.00 0.00 0.00 9 1010.7
20260509221102 15 270 3.2 4.8 0.00 0.00 0.00 9 1010.7
20260509220658 15 270 6.4 9.7 0.00 0.00 0.00 9 1010.7
20260509220413 15 315 6.4 9.7 0.00 0.00 0.00 9 1010.6
20260509220250 15 337 9.7 14.5 0.00 0.00 0.00 9 1010.5
20260509215842 15 292 4.8 6.4 0.00 0.00 0.00 9 1010.7
20260509215519 15 292 4.8 4.8 0.00 0.00 0.00 9 1010.6
20260509215344 15 270 4.8 6.4 0.00 0.00 0.00 9 1010.5
20260509214922 15 292 1.6 3.2 0.00 0.00 0.00 9 1010.3
20260509214554 15 315 3.2 4.8 0.00 0.00 0.00 9 1010.2
20260509214457 15 315 3.2 3.2 0.00 0.00 0.00 9 1010.3
20260509214052 15 292 3.2 4.8 0.00 0.00 0.00 9 1010.3
20260509213706 15 337 3.2 4.8 0.00 0.00 0.00 9 1010.2
20260509213632 15 337 3.2 4.8 0.00 0.00 0.00 9 1010.1
20260509213207 15 0 0.0 0.0 0.00 0.00 0.00 9 1010.1
20260509212712 15 0 0.0 0.0 0.00 0.00 0.00 9 1009.9
20260509212416 15 112 0.0 1.6 0.00 0.00 0.00 9 1009.9
20260509212217 15 112 1.6 3.2 0.00 0.00 0.00 9 1009.9
20260509211726 15 112 3.2 4.8 0.00 0.00 0.00 9 1009.9
20260509211458 15 112 3.2 3.2 0.00 0.00 0.00 9 1010.0
20260509211310 15 112 3.2 3.2 0.00 0.00 0.00 9 1010.0
20260509210905 15 0 0.0 0.0 0.00 0.00 0.00 9 1010.0
20260509210506 15 157 0.0 1.6 0.00 0.00 0.00 9 1010.3
20260509210458 15 202 0.0 1.6 0.00 0.00 0.00 9 1010.3
20260509210040 15 270 1.6 3.2 0.00 0.00 0.00 9 1010.5
20260509205629 15 0 0.0 1.6 0.00 0.00 0.00 9 1010.5
20260509205349 15 247 0.0 3.2 0.00 0.00 0.00 9 1010.4
20260509205300 15 0 0.0 1.6 0.00 0.00 0.00 9 1010.4
20260509204857 15 0 0.0 1.6 0.00 0.00 0.00 9 1010.4
20260509204541 15 0 0.0 0.0 0.00 0.00 0.00 9 1010.6
20260509204437 15 292 0.0 1.6 0.00 0.00 0.00 9 1010.5
20260509204032 15 292 1.6 3.2 0.00 0.00 0.00 9 1010.4
20260509203647 15 292 4.8 4.8 0.00 0.00 0.00 9 1010.5
20260509203612 15 292 3.2 3.2 0.00 0.00 0.00 9 1010.4
20260509203146 15 270 3.2 3.2 0.00 0.00 0.00 9 1010.4
20260509202652 15 0 0.0 0.0 0.00 0.00 0.00 9 1010.0
20260509202311 15 0 0.0 0.0 0.00 0.00 0.00 9 1010.0
20260509201857 15 0 0.0 0.0 0.00 0.00 0.00 9 1009.9
20260509201413 15 0 0.0 0.0 0.00 0.00 0.00 9 1010.0
20260509200940 15 0 0.0 0.0 0.00 0.00 0.00 9 1010.0
20260509200451 15 270 1.6 3.2 0.00 0.00 0.00 9 1009.9
20260509200419 15 270 1.6 3.2 0.00 0.00 0.00 9 1009.9
20260509200003 15 270 1.6 3.2 0.00 0.00 0.00 9 1009.9
20260509195552 15 270 3.2 4.8 0.00 0.00 0.00 9 1009.9
20260509195344 15 270 3.2 3.2 0.00 0.00 0.00 9 1009.9
20260509194913 15 0 0.0 0.0 0.00 0.00 0.00 9 1009.7
20260509194546 15 0 0.0 0.0 0.00 0.00 0.00 9 1009.6
20260509194503 15 0 0.0 0.0 0.00 0.00 0.00 9 1009.5
20260509194029 15 0 0.0 0.0 0.00 0.00 0.00 9 1009.4
20260509193546 15 0 0.0 0.0 0.00 0.00 0.00 9 1009.4
20260509193128 15 0 0.0 0.0 0.00 0.00 0.00 9 1009.3
20260509192717 15 90 0.0 1.6 0.00 0.00 0.00 9 1009.2
20260509192340 15 90 1.6 4.8 0.00 0.00 0.00 9 1009.1
20260509192305 15 90 1.6 3.2 0.00 0.00 0.00 9 1009.0
20260509191909 15 90 1.6 4.8 0.00 0.00 0.00 9 1009.0
20260509191503 15 112 8.0 9.7 0.00 0.00 0.00 9 1008.8
20260509191406 15 112 4.8 6.4 0.00 0.00 0.00 9 1008.8
20260509191045 15 112 4.8 6.4 0.00 0.00 0.00 9 1008.7
20260509190539 15 135 4.8 6.4 0.00 0.00 0.00 9 1008.8
20260509190123 15 90 1.6 3.2 0.00 0.00 0.00 9 1008.8
20260509185716 16 90 3.2 4.8 0.00 0.00 0.00 9 1008.7
20260509185714 16 90 3.2 4.8 0.00 0.00 0.00 9 1008.7
20260509185436 16 112 3.2 4.8 0.00 0.00 0.00 9 1008.7
20260509185306 16 90 4.8 6.4 0.00 0.00 0.00 9 1008.8
20260509185023 16 90 4.8 6.4 0.00 0.00 0.00 9 1008.8
20260509184539 16 90 4.8 6.4 0.00 0.00 0.00 9 1008.6
20260509184411 16 90 4.8 4.8 0.00 0.00 0.00 9 1008.8
20260509184109 16 90 3.2 4.8 0.00 0.00 0.00 9 1008.7
20260509183617 16 67 3.2 4.8 0.00 0.00 0.00 9 1008.4
20260509183129 16 67 3.2 4.8 0.00 0.00 0.00 9 1008.4
20260509182714 16 90 4.8 6.4 0.00 0.00 0.00 9 1008.1
20260509182301 16 112 9.7 9.7 0.00 0.00 0.00 8 1008.1
20260509182211 16 112 6.4 9.7 0.00 0.00 0.00 8 1007.9
20260509181812 16 112 8.0 9.7 0.00 0.00 0.00 8 1007.9
20260509181354 16 112 8.0 12.9 0.00 0.00 0.00 8 1007.7
20260509180948 16 112 4.8 9.7 0.00 0.00 0.00 8 1007.9
20260509180631 16 112 6.4 9.7 0.00 0.00 0.00 8 1007.9
20260509180541 16 112 6.4 9.7 0.00 0.00 0.00 8 1007.9
20260509180123 16 90 8.0 9.7 0.00 0.00 0.00 8 1008.0
20260509175714 16 112 6.4 9.7 0.00 0.00 0.00 8 1007.9
20260509175432 16 90 6.4 9.7 0.00 0.00 0.00 8 1007.9
20260509175001 17 112 9.7 12.9 0.00 0.00 0.00 8 1007.8
20260509174624 17 112 6.4 9.7 0.00 0.00 0.00 8 1007.6
20260509174517 17 112 6.4 9.7 0.00 0.00 0.00 8 1007.6
20260509174054 17 135 4.8 6.4 0.00 0.00 0.00 8 1007.7
20260509173711 17 112 4.8 9.7 0.00 0.00 0.00 8 1007.8
20260509173635 17 112 4.8 9.7 0.00 0.00 0.00 8 1007.8
20260509173210 17 112 6.4 9.7 0.00 0.00 0.00 8 1007.9
20260509172718 17 90 8.0 9.7 0.00 0.00 0.00 8 1007.9
20260509172714 17 90 8.0 9.7 0.00 0.00 0.00 8 1007.9
20260509172335 17 90 6.4 9.7 0.00 0.00 0.00 8 1007.9
20260509171906 17 112 9.7 12.9 0.00 0.00 0.00 8 1007.9
20260509171422 17 112 11.3 14.5 0.00 0.00 0.00 8 1007.9
20260509171000 17 90 11.3 16.1 0.00 0.00 0.00 8 1007.8
20260509170511 17 112 8.0 12.9 0.00 0.00 0.00 8 1007.8
20260509170043 17 112 9.7 14.5 0.00 0.00 0.00 8 1007.8
20260509165634 17 90 6.4 9.7 0.00 0.00 0.00 8 1007.6
20260509165555 17 90 6.4 9.7 0.00 0.00 0.00 8 1007.6
20260509165552 17 90 6.4 9.7 0.00 0.00 0.00 8 1007.6
20260509165101 17 90 12.9 17.7 0.00 0.00 0.00 8 1007.6
20260509164630 17 112 9.7 12.9 0.00 0.00 0.00 8 1007.6
20260509163842 17 135 6.4 9.7 0.00 0.00 0.00 8 1007.6
20260509163341 17 112 9.7 16.1 0.00 0.00 0.00 8 1007.4
20260509162849 17 135 6.4 14.5 0.00 0.00 0.00 8 1007.5
20260509162718 17 90 8.0 12.9 0.00 0.00 0.00 8 1007.5